Location: Newark
(46.7636°N, 1.8358°W)
Time: 13:46:01
(UTC+00:00)

Vanguard 2 Rocket - Pass Details

Date: 18 October 2019
Orbit: 554 x 3326 km, 32.9° (Epoch: 11 November)

Event Time Altitude Azimuth Distance (km) Brightness Sun altitude
Rises 14:31:05 0° 272° (W) 7,300 12.1 23.4°
Reaches altitude 10° 14:36:45 10° 266° (W) 6,155 12.0 22.8°
Maximum altitude 14:52:36 37° 209° (SSW) 3,546 11.4 20.8°
Drops below altitude 10° 15:03:30 10° 148° (SSE) 4,241 10.5 19.4°
Sets 15:06:37 0° 139° (SE) 4,886 10.6 19.0°
